Weather History for Grand Forks AFB, ND

Change the Weather History Date:

Tuesday, October 29, 2013

  Actual Average Record
Temperature  
Mean Temperature 26 °F -  
Max Temperature 38 °F 43 °F 64 °F (2007)
Min Temperature 15 °F 26 °F 15 °F (2013)
Degree Days  
Heating Degree Days 39    
Moisture  
Dew Point 18 °F    
Average Humidity 72    
Maximum Humidity 90    
Minimum Humidity 46    
Precipitation  
Precipitation 0.00 in - - ()
Sea Level Pressure  
Sea Level Pressure 30.35 in    
Wind  
Wind Speed 4 mph (NNE)    
Max Wind Speed 7 mph    
Max Gust Speed -    
Visibility 10 miles    
Events      
Averages and records for this station are not official NWS values.
T = Trace of Precipitation, MM = Missing Value Source: NWS Daily Summary

Daily Weather History Graph

Daily Weather History Graph

Search for Another Location

Airport:

Trip Planner

Search our weather history database for the weather conditions in past years. The results will help you decide how hot, cold, wet, or windy it might be!

Date:

Astronomy

Oct. 29, 2013 Rise Set
Actual Time 8:10 AM CDT 6:15 PM CDT
Civil Twilight 7:38 AM CDT 6:47 PM CDT
Nautical Twilight 7:01 AM CDT 7:24 PM CDT
Astronomical Twilight 6:25 AM CDT 8:00 PM CDT
Moon 2:39 AM CDT (10/29) 3:49 PM CDT (10/29)
Length of Visible Light 11h 09m
Length of Day
10h 05m
Waning Crescent, 25% of the Moon is Illuminated
Oct 29
Waning Crescent
Nov 3
New
Nov 9
First Quarter
Nov 17
Full
Nov 25
Last Quarter

Hourly Weather History & Observations

Time (CDT) Temp. Windchill Dew Point Humidity Pressure Visibility Wind Dir Wind Speed Gust Speed Precip Events Conditions
12:58 AM 18.3 °F 11.5 °F 15.1 °F 87% 30.56 in 10.0 mi NNE 4.6 mph - N/A   Clear
1:58 AM 18.5 °F 13.3 °F 15.4 °F 88% 30.54 in 10.0 mi NNW 3.5 mph - N/A   Clear
2:58 AM 21.4 °F 16.6 °F 17.6 °F 85% 30.53 in 10.0 mi North 3.5 mph - N/A   Clear
3:58 AM 19.2 °F 12.5 °F 16.2 °F 88% 30.51 in 10.0 mi North 4.6 mph - N/A   Clear
4:58 AM 17.6 °F 8.2 °F 14.9 °F 89% 30.49 in 10.0 mi NNE 6.9 mph - N/A   Clear
5:58 AM 17.4 °F 9.1 °F 14.5 °F 88% 30.47 in 10.0 mi NNE 5.8 mph - N/A   Clear
6:58 AM 16.5 °F 9.4 °F 14.2 °F 90% 30.45 in 10.0 mi North 4.6 mph - N/A   Clear
7:58 AM 15.1 °F 6.4 °F 12.7 °F 90% 30.43 in 10.0 mi North 5.8 mph - N/A   Clear
8:58 AM 15.8 °F 10.2 °F 13.5 °F 90% 30.43 in 10.0 mi NNW 3.5 mph - N/A   Clear
9:58 AM 20.8 °F 14.4 °F 17.4 °F 87% 30.43 in 10.0 mi NNW 4.6 mph - N/A   Overcast
10:58 AM 22.8 °F 15.5 °F 18.1 °F 82% 30.43 in 10.0 mi NNE 5.8 mph - N/A   Overcast
11:58 AM 26.4 °F 22.4 °F 19.2 °F 74% 30.39 in 10.0 mi NE 3.5 mph - N/A   Mostly Cloudy
12:58 PM 32.7 °F 29.6 °F 19.2 °F 58% 30.35 in 10.0 mi SE 3.5 mph - N/A   Partly Cloudy
1:58 PM 35.6 °F 31.7 °F 19.4 °F 52% 30.31 in 10.0 mi SE 4.6 mph - N/A   Clear
2:58 PM 37.8 °F 33.3 °F 18.5 °F 46% 30.29 in 10.0 mi South 5.8 mph - N/A   Clear
3:58 PM 37.0 °F - 18.7 °F 48% 30.26 in 10.0 mi South 2.3 mph - N/A   Overcast
4:58 PM 36.7 °F - 19.6 °F 50% 30.24 in 10.0 mi SSW 2.3 mph - N/A   Overcast
5:58 PM 36.0 °F 32.1 °F 19.6 °F 51% 30.22 in 10.0 mi South 4.6 mph - N/A   Overcast
6:58 PM 34.7 °F 31.8 °F 21.9 °F 60% 30.21 in 10.0 mi South 3.5 mph - N/A   Overcast
7:58 PM 33.8 °F - 21.7 °F 61% 30.22 in 10.0 mi SW 1.2 mph - N/A   Overcast
8:58 PM 33.1 °F 30.0 °F 21.9 °F 64% 30.19 in 10.0 mi SSW 3.5 mph - N/A   Overcast
9:58 PM 33.4 °F - 22.8 °F 65% 30.19 in 10.0 mi SSW 1.2 mph - N/A   Overcast
10:58 PM 33.4 °F - 24.1 °F 69% 30.20 in 10.0 mi Calm Calm - N/A   Overcast
11:58 PM 33.6 °F - 24.3 °F 69% 30.17 in 10.0 mi South 2.3 mph - N/A   Overcast